This demonstration page uses our WeatherBlox Daily Observations layout. Learn more.

Left ArrowRight Arrow

39.51506, -84.39828

Hourly Observations for May 26, 2017

Temp ( °F °C ) Dew Point ( °F °C ) Humidity (%) Winds ( mph kmh ) Pressure ( in mb ) Visibility ( mi km ) Precip ( " mm )
12:15 am 00:15 Partly Cloudy 60 15.6 54 12 79 79 WSW 6 9 29.77 1008 10 16 N/A
12:35 am 00:35 Mostly Cloudy 61 16 54 12.1 78 78 SW 3 6 29.77 1008 10 16 N/A
12:55 am 00:55 Mostly Cloudy 60 15.4 53 11.6 78 78 SW 6 9 29.80 1009 10 16 N/A
1:15 am 01:15 Partly Cloudy 60 15.3 54 12 81 81 SW 7 11 29.80 1009 10 16 N/A
1:35 am 01:35 Clear 60 15.3 53 11.7 79 79 SW 7 11 29.80 1009 10 16 N/A
1:55 am 01:55 Clear 60 15.3 54 12.1 81 81 SW 7 11 29.80 1009 10 16 N/A
2:15 am 02:15 Clear 60 15.3 54 12 81 81 SW 9 15 29.80 1009 10 16 N/A
2:35 am 02:35 Clear 60 15.3 54 12 81 81 WSW 9 15 29.80 1009 10 16 N/A
2:55 am 02:55 Clear 60 15.3 54 12 81 81 WSW 7 11 29.80 1009 10 16 N/A
3:15 am 03:15 Clear 60 15.3 54 12 81 81 WSW 7 11 29.83 1010 10 16 N/A
3:35 am 03:35 Clear 57 14.1 52 11 82 82 WSW 6 9 29.83 1010 10 16 N/A
3:55 am 03:55 Clear 57 13.8 51 10.7 82 82 SW 6 9 29.83 1010 10 16 N/A
4:15 am 04:15 Clear 57 13.8 52 11 83 83 SW 8 13 29.83 1010 10 16 N/A
4:35 am 04:35 Clear 57 13.8 52 10.9 83 83 WSW 6 9 29.83 1010 10 16 N/A
4:55 am 04:55 Clear 57 13.8 52 11 83 83 SW 6 9 29.83 1010 7 11 N/A
5:15 am 05:15 Clear 55 12.8 50 10 83 83 SW 7 11 29.85 1011 7 11 N/A
5:35 am 05:35 Clear 55 12.5 50 9.8 84 84 SW 6 9 29.85 1011 7 11 N/A
5:55 am 05:55 Clear 55 12.5 50 10 85 85 WSW 7 11 29.85 1011 7 11 N/A
6:15 am 06:15 Sunny 57 13.8 52 11 83 83 WSW 6 9 29.88 1012 7 11 N/A
6:35 am 06:35 Sunny with Mist and Fog 55 12.5 50 9.8 84 84 SSW 6 9 29.88 1012 3 5 N/A
6:55 am 06:55 Sunny with Mist and Fog 56 13.3 51 10.8 85 85 SSW 6 9 29.88 1012 4 6 N/A
7:15 am 07:15 Hazy 57 13.8 52 11.1 84 84 SSW 6 9 29.91 1013 5 8 N/A
7:35 am 07:35 Hazy 57 13.8 52 11 83 83 N N/A 29.91 1013 5 8 N/A
7:55 am 07:55 Sunny 60 15.3 54 12.3 82 82 SSW 3 6 29.88 1012 7 11 N/A
8:15 am 08:15 Sunny 60 15.3 53 11.9 80 80 S 6 9 29.88 1012 7 11 N/A
8:35 am 08:35 Sunny 61 16 54 12.4 79 79 SSW 6 9 29.88 1012 10 16 N/A
8:55 am 08:55 Sunny 62 16.9 55 12.7 76 76 WSW 6 9 29.88 1012 10 16 N/A
9:15 am 09:15 Sunny 63 17.4 55 13 76 76 SSW 3 6 29.91 1013 10 16 N/A
9:35 am 09:35 Sunny 66 18.8 57 14.1 74 74 SSW 7 11 29.91 1013 10 16 N/A
9:55 am 09:55 Sunny 68 20.2 59 14.9 72 72 SSW 7 11 29.91 1013 10 16 N/A
10:15 am 10:15 Sunny 69 20.8 58 14.5 67 67 W 8 13 29.91 1013 10 16 N/A
10:35 am 10:35 Sunny 69 20.8 56 13.1 62 62 WSW 8 13 29.91 1013 10 16 N/A
10:55 am 10:55 Sunny 69 20.8 56 13.3 62 62 WSW 8 13 29.91 1013 10 16 N/A
11:15 am 11:15 Sunny 69 20.8 55 12.8 60 60 W 10 17 29.91 1013 10 16 N/A
11:35 am 11:35 Sunny 71 21.8 56 13.2 58 58 SW 9 15 29.91 1013 10 16 N/A
11:55 am 11:55 Sunny 72 22.3 56 13.3 57 57 WSW 13 20 29.91 1013 10 16 N/A
12:15 pm 12:15 Partly Cloudy 74 23.6 58 14.7 58 58 SW 10 17 29.91 1013 10 16 N/A
12:35 pm 12:35 Partly Cloudy 74 23.6 58 14.2 56 56 SW 12 19 29.91 1013 10 16 N/A
12:55 pm 12:55 Sunny 74 23.6 56 13.5 53 53 W 9 15 29.91 1013 10 16 N/A
1:15 pm 13:15 Partly Cloudy 74 23.6 56 13.5 53 53 SW 5 7 29.88 1012 10 16 N/A
1:35 pm 13:35 Partly Cloudy 74 23.6 54 12.3 49 49 W 10 17 29.88 1012 10 16 N/A
1:55 pm 13:55 Partly Cloudy 74 23.6 55 12.6 50 50 SW 6 9 29.88 1012 10 16 N/A
2:15 pm 14:15 Partly Cloudy 76 24.7 54 12.4 46 46 WSW 5 7 29.88 1012 10 16 N/A
2:55 pm 14:55 Sunny 77 25.1 52 11 41 41 WSW 5 7 29.85 1011 10 16 N/A
3:15 pm 15:15 Sunny 76 24.7 52 11 42 42 SW 8 13 29.85 1011 10 16 N/A
3:35 pm 15:35 Sunny 77 25.1 52 11.1 42 42 SSW 3 6 29.85 1011 10 16 N/A
3:55 pm 15:55 Sunny 77 25.1 51 10.7 40 40 WSW 5 7 29.85 1011 10 16 N/A
4:15 pm 16:15 Sunny 77 25.2 51 10.4 39 39 SW 7 11 29.85 1011 10 16 N/A
4:35 pm 16:35 Sunny 79 26.2 52 11.2 39 39 SSW 6 9 29.85 1011 10 16 N/A
4:55 pm 16:55 Sunny 80 26.5 52 10.9 38 38 SW 7 11 29.85 1011 10 16 N/A
5:15 pm 17:15 Sunny 80 26.5 51 10.4 36 36 SSW 6 9 29.85 1011 10 16 N/A
5:35 pm 17:35 Sunny 80 26.5 51 10.3 36 36 SSW 7 11 29.85 1011 10 16 N/A
5:55 pm 17:55 Sunny 80 26.5 51 10.8 37 37 SW 12 19 29.85 1011 10 16 N/A
6:15 pm 18:15 Partly Cloudy 80 26.5 51 10.8 37 37 SSW 10 17 29.85 1011 10 16 N/A
6:35 pm 18:35 Sunny 80 26.5 52 11.1 38 38 SW 6 9 29.85 1011 10 16 N/A
6:55 pm 18:55 Sunny 78 25.7 52 11.3 41 41 SW 8 13 29.85 1011 10 16 N/A
7:15 pm 19:15 Partly Cloudy 77 25.2 53 11.6 43 43 SW 5 7 29.85 1011 10 16 N/A
7:35 pm 19:35 Sunny 77 25.1 54 12.3 45 45 SW 8 13 29.85 1011 10 16 N/A
7:55 pm 19:55 Partly Cloudy 75 23.9 54 12.3 48 48 SW 6 9 29.85 1011 10 16 N/A
8:15 pm 20:15 Cloudy 74 23.6 56 13.2 52 52 S 5 7 29.85 1011 10 16 N/A
8:35 pm 20:35 Partly Cloudy 74 23.6 54 12 48 48 S 6 9 29.85 1011 10 16 N/A
8:55 pm 20:55 Clear 74 23.6 55 13 52 52 S 3 6 29.83 1010 10 16 N/A
9:15 pm 21:15 Clear 74 23.6 54 12.4 50 50 S 8 13 29.83 1010 10 16 N/A
9:35 pm 21:35 Clear 74 23.6 55 12.8 51 51 S 8 13 29.83 1010 10 16 N/A
9:55 pm 21:55 Mostly Cloudy 74 23.6 55 12.8 51 51 S 7 11 29.83 1010 10 16 N/A
10:15 pm 22:15 Cloudy 74 23.6 55 13 52 52 SSE 7 11 29.83 1010 10 16 N/A
10:35 pm 22:35 Cloudy 74 23.6 56 13.3 53 53 S 9 15 29.83 1010 10 16 N/A
10:55 pm 22:55 Cloudy with Light Rain 74 23.6 59 14.8 58 58 WNW 7 11 29.88 1012 10 16 N/A
11:15 pm 23:15 Cloudy with Light Rain 69 20.8 62 16.5 77 77 NNW 9 15 29.88 1012 7 11 N/A
11:35 pm 23:35 Cloudy 69 20.8 63 17 79 79 N 9 15 29.88 1012 10 16 N/A
11:55 pm 23:55 Partly Cloudy 67 19.6 60 15.7 78 78 E 5 7 29.85 1011 10 16 N/A

Powered by AerisWeather